Hourly Weather Allenjoie

Today, 5 December, Saturday

Time Temperature Precipitation Wind Pressure Humidity
00:00 +3°C° 0.8 mm 1 mps 713 mmHg 99%
01:00 +3°C° 0.2 mm 1 mps 713 mmHg 98%
02:00 +3°C° 0.2 mm 1 mps 713 mmHg 98%
03:00 +2°C° 0.2 mm 2 mps 714 mmHg 98%
04:00 +3°C° 0 mm 1 mps 714 mmHg 97%
05:00 +3°C° 0 mm 1 mps 715 mmHg 97%
06:00 +3°C° 0 mm 1 mps 715 mmHg 96%
07:00 +3°C° 0 mm 1 mps 716 mmHg 95%
08:00 +3°C° 0 mm 1 mps 716 mmHg 95%
09:00 +3°C° 0 mm 1 mps 716 mmHg 94%
10:00 +4°C° 0 mm 1 mps 716 mmHg 93%
11:00 +5°C° 0 mm 1 mps 716 mmHg 93%
12:00 +5°C° 0 mm 1 mps 716 mmHg 92%
13:00 +5°C° 0 mm 1 mps 716 mmHg 93%
14:00 +4°C° 0 mm 1 mps 716 mmHg 94%
15:00 +3°C° 0 mm 2 mps 716 mmHg 95%
16:00 +3°C° 0 mm 2 mps 716 mmHg 94%
17:00 +2°C° 0 mm 2 mps 716 mmHg 94%
18:00 +2°C° 0 mm 2 mps 716 mmHg 94%
19:00 +2°C° 0 mm 2 mps 716 mmHg 94%
20:00 +2°C° 0 mm 2 mps 716 mmHg 94%
21:00 +2°C° 0 mm 2 mps 716 mmHg 94%
22:00 +2°C° 0 mm 2 mps 716 mmHg 94%
23:00 +3°C° 0 mm 1 mps 716 mmHg 94%

Tomorrow, 6 December, Sunday

Time Temperature Precipitation Wind Pressure Humidity
00:00 +3°C° 0 mm 1 mps 716 mmHg 94%
01:00 +3°C° 0 mm 1 mps 716 mmHg 94%
02:00 +3°C° 0 mm 1 mps 716 mmHg 94%
03:00 +2°C° 0 mm 0 mps 716 mmHg 94%
04:00 +2°C° 0 mm 0 mps 717 mmHg 94%
05:00 +2°C° 0 mm 0 mps 717 mmHg 93%
06:00 +2°C° 0 mm 0 mps 717 mmHg 93%
07:00 +3°C° 0 mm 1 mps 717 mmHg 92%
08:00 +3°C° 0 mm 1 mps 717 mmHg 92%
09:00 +4°C° 0 mm 1 mps 717 mmHg 91%
10:00 +4°C° 0 mm 1 mps 717 mmHg 91%
11:00 +5°C° 0 mm 1 mps 717 mmHg 91%
12:00 +6°C° 0 mm 1 mps 717 mmHg 90%
13:00 +5°C° 0 mm 1 mps 717 mmHg 92%
14:00 +5°C° 0 mm 1 mps 717 mmHg 93%
15:00 +4°C° 0 mm 1 mps 717 mmHg 94%
16:00 +4°C° 0 mm 1 mps 717 mmHg 94%
17:00 +3°C° 0 mm 1 mps 717 mmHg 94%
18:00 +2°C° 0 mm 0 mps 718 mmHg 94%
19:00 +2°C° 0 mm 0 mps 718 mmHg 94%
20:00 +3°C° 0 mm 1 mps 718 mmHg 94%
21:00 +3°C° 0 mm 1 mps 718 mmHg 93%
22:00 +3°C° 0 mm 1 mps 718 mmHg 94%
23:00 +3°C° 0 mm 1 mps 718 mmHg 94%

Day after tomorrow, 7 December, Monday

Time Temperature Precipitation Wind Pressure Humidity
00:00 +3°C° 0 mm 1 mps 718 mmHg 94%
01:00 +3°C° 0.1 mm 1 mps 718 mmHg 95%
02:00 +3°C° 0.1 mm 1 mps 718 mmHg 96%
03:00 +3°C° 0.1 mm 1 mps 718 mmHg 98%
04:00 +3°C° 0.4 mm 1 mps 718 mmHg 98%
05:00 +3°C° 0.4 mm 1 mps 718 mmHg 98%
06:00 +3°C° 0.4 mm 1 mps 718 mmHg 98%
07:00 +3°C° 0.1 mm 1 mps 718 mmHg 98%
08:00 +3°C° 0.1 mm 1 mps 718 mmHg 97%
09:00 +3°C° 0.1 mm 1 mps 718 mmHg 97%
10:00 +4°C° 0.1 mm 1 mps 718 mmHg 95%
11:00 +4°C° 0.1 mm 1 mps 718 mmHg 92%
12:00 +4°C° 0.1 mm 1 mps 718 mmHg 90%
13:00 +4°C° 0 mm 1 mps 718 mmHg 91%
14:00 +4°C° 0 mm 1 mps 718 mmHg 92%
15:00 +3°C° 0 mm 1 mps 718 mmHg 93%
16:00 +2°C° 0 mm 1 mps 718 mmHg 94%
17:00 +2°C° 0 mm 1 mps 718 mmHg 94%
18:00 0°C° 0 mm 0 mps 719 mmHg 94%
19:00 0°C° 0 mm 0 mps 719 mmHg 94%
20:00 0°C° 0 mm 0 mps 719 mmHg 94%
21:00 0°C° 0 mm 0 mps 719 mmHg 93%
22:00 -1°C° 0 mm 0 mps 719 mmHg 93%
23:00 -1°C° 0 mm 0 mps 718 mmHg 93%

8 December, Tuesday

Time Temperature Precipitation Wind Pressure Humidity
00:00 -1°C° 0 mm 0 mps 718 mmHg 93%
01:00 0°C° 0 mm 1 mps 718 mmHg 93%
02:00 0°C° 0 mm 1 mps 718 mmHg 94%
03:00 0°C° 0 mm 1 mps 718 mmHg 94%
04:00 0°C° 0 mm 1 mps 718 mmHg 94%
05:00 0°C° 0 mm 1 mps 718 mmHg 94%
06:00 -2°C° 0 mm 2 mps 718 mmHg 94%
07:00 -1°C° 0 mm 2 mps 718 mmHg 93%
08:00 -1°C° 0 mm 2 mps 719 mmHg 92%
09:00 +1°C° 0 mm 2 mps 719 mmHg 90%
10:00 +2°C° 0 mm 2 mps 719 mmHg 89%
11:00 +2°C° 0 mm 2 mps 719 mmHg 87%
12:00 +3°C° 0 mm 2 mps 719 mmHg 86%
13:00 +3°C° 0 mm 2 mps 719 mmHg 87%
14:00 +2°C° 0 mm 2 mps 719 mmHg 88%
15:00 +2°C° 0 mm 2 mps 719 mmHg 89%
16:00 +3°C° 0 mm 1 mps 720 mmHg 91%
17:00 +2°C° 0 mm 1 mps 720 mmHg 92%
18:00 +2°C° 0 mm 1 mps 721 mmHg 94%
19:00 +2°C° 0 mm 1 mps 721 mmHg 94%
20:00 +1°C° 0 mm 1 mps 721 mmHg 94%
21:00 +1°C° 0 mm 1 mps 722 mmHg 94%
22:00 0°C° 0 mm 0 mps 722 mmHg 95%
23:00 0°C° 0 mm 0 mps 722 mmHg 95%

9 December, Wednesday

Time Temperature Precipitation Wind Pressure Humidity
00:00 0°C° 0 mm 0 mps 722 mmHg 95%
01:00 0°C° 0.1 mm 0 mps 723 mmHg 95%
02:00 0°C° 0.1 mm 0 mps 723 mmHg 96%
03:00 0°C° 0.1 mm 0 mps 723 mmHg 97%
04:00 0°C° 0.1 mm 0 mps 723 mmHg 97%
05:00 0°C° 0.1 mm 0 mps 723 mmHg 97%
06:00 0°C° 0.1 mm 0 mps 724 mmHg 97%
07:00 0°C° 0.1 mm 0 mps 724 mmHg 96%
08:00 0°C° 0.1 mm 0 mps 724 mmHg 96%
09:00 +1°C° 0.1 mm 0 mps 724 mmHg 95%
10:00 +1°C° 0.1 mm 0 mps 724 mmHg 94%
11:00 +1°C° 0.1 mm 0 mps 724 mmHg 93%
12:00 +3°C° 0.1 mm 1 mps 724 mmHg 92%
13:00 +2°C° 0.1 mm 1 mps 724 mmHg 92%
14:00 +2°C° 0.1 mm 1 mps 724 mmHg 93%
15:00 +2°C° 0.1 mm 1 mps 724 mmHg 93%
16:00 +2°C° 0 mm 1 mps 724 mmHg 94%
17:00 +1°C° 0 mm 1 mps 724 mmHg 95%
18:00 +1°C° 0 mm 1 mps 725 mmHg 96%
19:00 0°C° 0 mm 1 mps 725 mmHg 95%
20:00 0°C° 0 mm 1 mps 725 mmHg 95%
21:00 -1°C° 0 mm 1 mps 725 mmHg 95%
22:00 -1°C° 0 mm 1 mps 725 mmHg 95%
23:00 -1°C° 0 mm 1 mps 725 mmHg 95%

10 December, Thursday

Time Temperature Precipitation Wind Pressure Humidity
00:00 -1°C° 0 mm 1 mps 725 mmHg 95%
01:00 -2°C° 0 mm 1 mps 724 mmHg 94%
02:00 -2°C° 0 mm 1 mps 724 mmHg 94%
03:00 -2°C° 0 mm 1 mps 724 mmHg 94%
04:00 -3°C° 0 mm 0 mps 723 mmHg 93%
05:00 -3°C° 0 mm 0 mps 723 mmHg 92%
06:00 -4°C° 0 mm 0 mps 723 mmHg 92%
07:00 -2°C° 0 mm 1 mps 722 mmHg 90%
08:00 -1°C° 0 mm 1 mps 722 mmHg 88%
09:00 0°C° 0 mm 1 mps 721 mmHg 86%
10:00 +1°C° 0 mm 1 mps 720 mmHg 84%
11:00 +1°C° 0 mm 2 mps 719 mmHg 82%
12:00 +2°C° 0 mm 2 mps 719 mmHg 80%
13:00 +1°C° 0 mm 2 mps 718 mmHg 82%
14:00 +1°C° 0 mm 2 mps 717 mmHg 84%
15:00 -1°C° 0 mm 2 mps 716 mmHg 86%
16:00 -2°C° 0 mm 2 mps 716 mmHg 87%
17:00 -2°C° 0 mm 2 mps 716 mmHg 88%
18:00 -3°C° 0 mm 2 mps 716 mmHg 90%
19:00 -3°C° 0 mm 2 mps 715 mmHg 89%
20:00 -3°C° 0 mm 2 mps 715 mmHg 89%
21:00 -3°C° 0 mm 2 mps 715 mmHg 88%
22:00 -3°C° 0 mm 2 mps 714 mmHg 88%
23:00 -2°C° 0 mm 2 mps 714 mmHg 88%
Show more